GSAT 20

导读

GSAT-20是印度空间研究组织研发的通信卫星,于2024年11月由SpaceX猎鹰9号火箭在卡纳维拉尔角发射。卫星重约4.7吨,因重量超出印度火箭运力,印度采购商业发射服务完成发射。它可通过32个波束提供48Gbps通信容量,设计寿命14年,将大幅提升印度通信基础设施能力,增强区域高速网络覆盖。

Basic Information
目录编号:
62028
目录名称:
GSAT 20
国际标识:
2024-214A
轨道中心:
EARTH
卫星名称:
GSAT 20
卫星全名:
GSAT 20
卫星状态:
在轨 (已飞行576 天)
发射日期:
2024-11-18 UTC
国别 :
印度 (IN)
星等 :
--
Orbit Information
数据来源 国际轨道数据 AOE轨道数据
星历时间 2026-06-17T06:40:02+0800
10小时前
查看轨道信息
2026-06-16T03:00:00+0800
1天前
查看轨道信息
半长轴 42165.317km 42165.317km
偏心率 0.0001805 0.0001547
轨道倾角 0.042° 0.038°
近地点辐角 320.893° 343.472°
升交点赤经 114.283° 107.314°
平近点角 237.996° 166.246°
近地点 35779.569km 35780.657km
远地点 35794.791km 35793.703km
周期 1436.127分钟 1436.127分钟
每日圈数 1.002697 1.002697
Detailed Information
使用方式:
暂无
2D Orbit Map
3D Orbit Map
Orbit Altitude Analysis Chart
Orbit Inclination Analysis Chart
Orbit Comprehensive Analysis Chart
View Comprehensive Chart